Weather in Rye

United Kingdom     50°57′08″N   0°44′08″E
temp.,
°C
wind,
m/s
gust,
m/s
humid.,
%
clouds,
%
prec.,
mm/h
press.,
hPa
HPBL,
m
23 september, thu
thu2301:00+12wsw33916 0.0 102427
04:00+12w36945 0.0 1022107
07:00+11w389559 0.0 1021170
10:00+16w57746 0.0 1021412
13:00+21w576233 0.0 1019990
16:00+20w4769100 0.0 10191067
19:00+16wsw3385100 0.0 101943
22:00+14wsw33925 0.0 101929
24 september, fri
fri2401:00+13w23958 0.0 101930
04:00+12sw349620 0.0 101750
07:00+11sw349832 0.0 101860
10:00+16sw578120 0.0 1018385
13:00+17sw666414 0.0 1017489
16:00+16sw67669 0.0 1016347
19:00+12sw47856 0.0 1016117
22:00+11sw33845 0.0 101628
25 september, sat
sat2501:00+12wnw228243 0.0 101511
04:00+11ssw229137 0.0 101517
07:00+12se119010 0.0 101511
10:00+15sse337736 0.0 1016229
13:00+17s337247 0.0 1015324
16:00+17s22629 0.0 1014234
19:00+13se1158100 0.0 101410
22:00+13ese226097 0.0 101420
26 september, sun
sun2601:00+12ene22775 0.0 101313
04:00+12ese22865 0.0 101211
07:00+11se22885 0.0 101125
10:00+16ssw357173 0.0 1012209
13:00+17ssw676716 0.0 1012443
16:00+17sw710718 0.0 1012646
19:00+12ssw489257 0.0 1012162
22:00+12s3893100 0.0 1012136
27 september, mon
mon2701:00+13ssw5149094 0.0 1011321
04:00+13ssw81794100 0.4 1010594
07:00+12w6128327 1.4 1013537
10:00+14wsw610710 0.0 1017755
13:00+16wsw810521 0.0 10191408
16:00+15sw896111 0.0 1020855
19:00+12wsw6127799 0.0 1023334
22:00+10wsw3986100 0.0 1024187